Time,TemperatureF,DewpointF,PressureIn,WindDirection,WindDirectionDegrees,WindSpeedMPH,WindSpeedGustMPH,Humidity,HourlyPrecipIn,Conditions,Clouds,dailyrainin,SoftwareType,DateUTC
2013-09-13 05:40:00,-999.0,-99.9,0.00,North,-999,-999.0,-999.0,-999,0.00,,,0.00,weatherlink.com 1.10,2013-09-13 11:40:00,
2013-09-13 05:52:00,59.2,58.0,25.37,ESE,102,6.0,16.0,97,0.00,,,0.00,weatherlink.com 1.10,2013-09-13 11:52:00,
2013-09-13 06:07:00,59.2,58.0,25.37,SE,125,15.0,19.0,97,0.00,,,0.00,weatherlink.com 1.10,2013-09-13 12:07:00,
2013-09-13 06:22:00,59.3,59.0,25.37,ESE,111,7.0,19.0,97,0.01,,,0.01,weatherlink.com 1.10,2013-09-13 12:22:00,
2013-09-13 06:37:00,59.3,59.0,25.37,ESE,115,3.0,19.0,97,0.02,,,0.02,weatherlink.com 1.10,2013-09-13 12:37:00,
2013-09-13 06:52:00,59.3,59.0,25.36,ESE,105,10.0,13.0,97,0.03,,,0.03,weatherlink.com 1.10,2013-09-13 12:52:00,
2013-09-13 07:07:00,59.3,59.0,25.36,SSE,150,7.0,16.0,97,0.04,,,0.04,weatherlink.com 1.10,2013-09-13 13:07:00,
2013-09-13 07:22:00,59.4,59.0,25.37,SSE,150,10.0,18.0,97,0.03,,,0.05,weatherlink.com 1.10,2013-09-13 13:22:00,
2013-09-13 07:37:00,59.4,59.0,25.36,SSE,155,9.0,15.0,97,0.04,,,0.06,weatherlink.com 1.10,2013-09-13 13:37:00,
2013-09-13 07:52:00,59.4,59.0,25.36,ESE,113,4.0,13.0,97,0.06,,,0.09,weatherlink.com 1.10,2013-09-13 13:52:00,
2013-09-13 08:07:00,59.6,59.0,25.36,ESE,111,5.0,18.0,97,0.07,,,0.11,weatherlink.com 1.10,2013-09-13 14:07:00,
2013-09-13 08:22:00,59.5,59.0,25.36,ESE,108,6.0,16.0,97,0.08,,,0.13,weatherlink.com 1.10,2013-09-13 14:22:00,
2013-09-13 08:38:00,58.4,57.0,25.35,SE,130,6.0,19.0,96,0.07,,,0.13,weatherlink.com 1.10,2013-09-13 14:38:00,
2013-09-13 08:53:00,57.8,57.0,25.35,SE,136,12.0,18.0,97,0.04,,,0.13,weatherlink.com 1.10,2013-09-13 14:53:00,
2013-09-13 09:08:00,57.7,57.0,25.35,ESE,103,8.0,17.0,97,0.02,,,0.13,weatherlink.com 1.10,2013-09-13 15:08:00,
2013-09-13 09:23:00,57.6,57.0,25.35,SE,124,9.0,15.0,97,0.02,,,0.15,weatherlink.com 1.10,2013-09-13 15:23:00,
2013-09-13 09:38:00,57.2,56.0,25.35,ESE,117,8.0,17.0,97,0.04,,,0.17,weatherlink.com 1.10,2013-09-13 15:38:00,
2013-09-13 09:53:00,56.8,56.0,25.35,ESE,103,15.0,19.0,97,0.04,,,0.17,weatherlink.com 1.10,2013-09-13 15:53:00,
2013-09-13 10:08:00,56.7,56.0,25.35,ESE,111,3.0,15.0,97,0.05,,,0.18,weatherlink.com 1.10,2013-09-13 16:08:00,
2013-09-13 10:23:00,56.8,56.0,25.34,SE,124,3.0,18.0,98,0.06,,,0.21,weatherlink.com 1.10,2013-09-13 16:23:00,
2013-09-13 10:38:00,56.7,56.0,25.34,ESE,110,5.0,15.0,98,0.10,,,0.27,weatherlink.com 1.10,2013-09-13 16:38:00,
2013-09-13 10:53:00,56.8,56.0,25.34,SE,126,8.0,14.0,98,0.19,,,0.36,weatherlink.com 1.10,2013-09-13 16:53:00,
2013-09-13 11:08:00,56.7,56.0,25.33,ENE,75,8.0,11.0,98,0.23,,,0.41,weatherlink.com 1.10,2013-09-13 17:08:00,
2013-09-13 11:23:00,56.8,56.0,25.33,SE,145,3.0,16.0,98,0.20,,,0.42,weatherlink.com 1.10,2013-09-13 17:23:00,
2013-09-13 11:38:00,56.8,56.0,25.33,ESE,117,2.0,11.0,98,0.16,,,0.44,weatherlink.com 1.10,2013-09-13 17:38:00,
2013-09-13 11:53:00,56.8,56.0,25.32,SSE,158,7.0,16.0,98,0.08,,,0.44,weatherlink.com 1.10,2013-09-13 17:53:00,
2013-09-13 12:08:00,57.1,57.0,25.31,SE,143,8.0,19.0,98,0.04,,,0.45,weatherlink.com 1.10,2013-09-13 18:08:00,
2013-09-13 12:23:00,57.4,57.0,25.30,ESE,113,11.0,20.0,97,0.03,,,0.45,weatherlink.com 1.10,2013-09-13 18:23:00,
2013-09-13 12:38:00,57.7,57.0,25.30,East,83,4.0,22.0,97,0.01,,,0.45,weatherlink.com 1.10,2013-09-13 18:38:00,
2013-09-13 12:53:00,57.7,57.0,25.30,SSE,149,6.0,23.0,97,0.01,,,0.45,weatherlink.com 1.10,2013-09-13 18:53:00,
2013-09-13 13:08:00,57.5,57.0,25.29,SSE,150,13.0,27.0,97,0.00,,,0.45,weatherlink.com 1.10,2013-09-13 19:08:00,
2013-09-13 13:23:00,57.7,57.0,25.29,East,87,20.0,30.0,98,0.00,,,0.45,weatherlink.com 1.10,2013-09-13 19:23:00,
2013-09-13 13:38:00,57.7,57.0,25.28,ESE,112,19.0,23.0,98,0.00,,,0.45,weatherlink.com 1.10,2013-09-13 19:38:00,
2013-09-13 13:53:00,57.6,57.0,25.28,ESE,114,14.0,22.0,98,0.00,,,0.45,weatherlink.com 1.10,2013-09-13 19:53:00,
2013-09-13 14:08:00,58.0,58.0,25.27,ENE,75,4.0,21.0,98,0.00,,,0.45,weatherlink.com 1.10,2013-09-13 20:08:00,
2013-09-13 14:23:00,57.9,57.0,25.27,ESE,120,14.0,27.0,98,0.00,,,0.45,weatherlink.com 1.10,2013-09-13 20:23:00,
2013-09-13 14:38:00,57.8,57.0,25.27,SE,135,9.0,19.0,98,0.00,,,0.45,weatherlink.com 1.10,2013-09-13 20:38:00,
2013-09-13 14:53:00,58.0,58.0,25.26,SE,127,12.0,22.0,98,0.00,,,0.45,weatherlink.com 1.10,2013-09-13 20:53:00,
2013-09-13 15:08:00,57.6,57.0,25.26,SE,125,19.0,20.0,98,0.00,,,0.45,weatherlink.com 1.10,2013-09-13 21:08:00,
2013-09-13 15:23:00,57.1,57.0,25.26,SSE,149,13.0,24.0,98,0.00,,,0.45,weatherlink.com 1.10,2013-09-13 21:23:00,
2013-09-13 15:38:00,57.1,57.0,25.26,SE,135,5.0,23.0,98,0.00,,,0.45,weatherlink.com 1.10,2013-09-13 21:38:00,
2013-09-13 15:53:00,57.4,57.0,25.25,SSE,148,14.0,22.0,98,0.00,,,0.45,weatherlink.com 1.10,2013-09-13 21:53:00,
2013-09-13 16:08:00,57.5,57.0,25.25,ESE,108,9.0,27.0,98,0.00,,,0.45,weatherlink.com 1.10,2013-09-13 22:08:00,
2013-09-13 16:24:00,57.8,57.0,25.25,NW,318,4.0,20.0,98,0.00,,,0.45,weatherlink.com 1.10,2013-09-13 22:24:00,
2013-09-13 16:39:00,58.2,58.0,25.24,SE,134,4.0,20.0,98,0.00,,,0.45,weatherlink.com 1.10,2013-09-13 22:39:00,
2013-09-13 16:54:00,58.3,58.0,25.24,ESE,122,8.0,20.0,98,0.00,,,0.45,weatherlink.com 1.10,2013-09-13 22:54:00,
2013-09-13 17:09:00,58.6,58.0,25.23,South,172,9.0,19.0,98,0.00,,,0.45,weatherlink.com 1.10,2013-09-13 23:09:00,
2013-09-13 17:24:00,58.4,58.0,25.23,SE,129,7.0,14.0,98,0.00,,,0.45,weatherlink.com 1.10,2013-09-13 23:24:00,
2013-09-13 17:39:00,58.6,58.0,25.23,SSE,153,6.0,18.0,98,0.00,,,0.45,weatherlink.com 1.10,2013-09-13 23:39:00,
2013-09-13 17:54:00,58.8,58.0,25.23,ESE,107,12.0,24.0,98,0.00,,,0.45,weatherlink.com 1.10,2013-09-13 23:54:00,
2013-09-13 18:09:00,58.9,58.0,25.23,SE,127,12.0,28.0,98,0.00,,,0.45,weatherlink.com 1.10,2013-09-14 00:09:00,
2013-09-13 18:24:00,58.9,58.0,25.22,ESE,121,23.0,25.0,98,0.00,,,0.45,weatherlink.com 1.10,2013-09-14 00:24:00,
2013-09-13 18:39:00,58.9,58.0,25.23,SSE,153,5.0,25.0,98,0.00,,,0.45,weatherlink.com 1.10,2013-09-14 00:39:00,
2013-09-13 18:54:00,59.0,59.0,25.23,ESE,113,12.0,29.0,98,0.00,,,0.45,weatherlink.com 1.10,2013-09-14 00:54:00,
2013-09-13 19:09:00,59.0,59.0,25.22,SSE,150,21.0,24.0,98,0.00,,,0.45,weatherlink.com 1.10,2013-09-14 01:09:00,
2013-09-13 19:24:00,59.2,59.0,25.22,ESE,105,19.0,25.0,98,0.00,,,0.45,weatherlink.com 1.10,2013-09-14 01:24:00,
2013-09-13 19:39:00,59.2,59.0,25.23,SE,130,9.0,26.0,98,0.00,,,0.45,weatherlink.com 1.10,2013-09-14 01:39:00,
2013-09-13 19:54:00,59.3,59.0,25.23,ESE,117,11.0,23.0,98,0.00,,,0.45,weatherlink.com 1.10,2013-09-14 01:54:00,
2013-09-13 20:09:00,59.4,59.0,25.23,ESE,123,11.0,23.0,98,0.00,,,0.45,weatherlink.com 1.10,2013-09-14 02:09:00,
2013-09-13 20:24:00,59.5,59.0,25.23,ESE,113,11.0,23.0,98,0.00,,,0.45,weatherlink.com 1.10,2013-09-14 02:24:00,
2013-09-13 20:39:00,59.6,59.0,25.23,East,90,16.0,24.0,98,0.00,,,0.45,weatherlink.com 1.10,2013-09-14 02:39:00,
2013-09-13 20:54:00,59.7,59.0,25.23,ESE,114,18.0,25.0,98,0.00,,,0.45,weatherlink.com 1.10,2013-09-14 02:54:00,
2013-09-13 21:09:00,59.7,59.0,25.23,East,86,16.0,22.0,98,0.00,,,0.45,weatherlink.com 1.10,2013-09-14 03:09:00,
2013-09-13 21:24:00,59.9,59.0,25.23,ESE,120,12.0,28.0,98,0.00,,,0.45,weatherlink.com 1.10,2013-09-14 03:24:00,
2013-09-13 21:39:00,60.0,60.0,25.23,SW,231,9.0,20.0,98,0.00,,,0.45,weatherlink.com 1.10,2013-09-14 03:39:00,
2013-09-13 21:54:00,60.0,60.0,25.23,ESE,111,13.0,21.0,98,0.00,,,0.45,weatherlink.com 1.10,2013-09-14 03:54:00,
2013-09-13 22:09:00,60.2,60.0,25.23,SSE,160,12.0,19.0,98,0.00,,,0.45,weatherlink.com 1.10,2013-09-14 04:09:00,
2013-09-13 22:24:00,60.3,60.0,25.23,SSW,207,12.0,18.0,98,0.02,,,0.47,weatherlink.com 1.10,2013-09-14 04:24:00,
2013-09-13 22:39:00,60.1,60.0,25.23,SSE,168,15.0,15.0,98,0.06,,,0.51,weatherlink.com 1.10,2013-09-14 04:39:00,
2013-09-13 22:54:00,59.7,57.0,25.26,West,273,8.0,16.0,92,0.06,,,0.51,weatherlink.com 1.10,2013-09-14 04:54:00,
2013-09-13 23:09:00,57.3,55.0,25.27,West,264,7.0,12.0,93,0.32,,,0.77,weatherlink.com 1.10,2013-09-14 05:09:00,
2013-09-13 23:24:00,56.6,56.0,25.27,WSW,243,4.0,7.0,96,0.39,,,0.88,weatherlink.com 1.10,2013-09-14 05:24:00,
2013-09-13 23:39:00,56.5,55.0,25.26,SSE,150,5.0,7.0,96,0.43,,,0.94,weatherlink.com 1.10,2013-09-14 05:39:00,
2013-09-13 23:54:00,56.5,56.0,25.26,SSW,210,4.0,11.0,97,0.45,,,0.96,weatherlink.com 1.10,2013-09-14 05:54:00,